Location: Gorze? G�rny
(49.8500°N, 19.5000°E)
Time: 04:05:03
(UTC+00:00)

SL-8 Rocket - Pass Details

Date: 13 May 2021
Orbit: 957 x 991 km, 82.9° (Epoch: 23 June)

Event Time Altitude Azimuth Distance (km) Brightness Sun altitude
Rises 21:34:54 0° 348° (NNW) 3,718 8.7 -20.1°
Reaches altitude 10° 21:37:27 10° 345° (NNW) 2,765 7.6 -20.2°
Maximum altitude 21:43:42 63° 267° (W) 1,102 4.3 -20.5°
Enters shadow 21:46:40 32° 198° (SSW) 1,637 4.7 -20.6°
